Location: Unspecified
(33.6682°S, 0.0000°E)
Time: 02:55:00
(UTC+00:00)

S-56A Canister/Altair - Pass Details

Date: 28 June 2019
Orbit: 632 x 2500 km, 38.9° (Epoch: 22 July)

Event Time Altitude Azimuth Distance (km) Brightness Sun altitude
Exits shadow 05:41:09 23° 248° (WSW) 2,892 9.8 -17.0°
Maximum altitude 05:48:19 75° 165° (SSE) 1,965 9.5 -15.6°
Drops below altitude 10° 06:02:18 10° 80° (E) 5,002 13.1 -12.8°
Sets 06:06:33 0° 78° (ENE) 6,120 14.1 -12.0°
